Simultaneous Nadir Overpasses (SNOs) Predictions

Prediction of SNOs between AQUA and NPP Satellite Orbit:

Table of predicted SNOs for the next 14.0 days since TLE Epoch: 6/1/2018
Index Date (AQUA) Time (AQUA) Lat,Lon (AQUA) SZA (AQUA ) Date (NPP) Time (NPP) Lat,Lon (NPP) SZA (NPP ) Distance(km) Time Diff (sec)
1 06/01/2018 23:27:43 76.88, 70.04 74.38 06/01/2018 23:28:49 76.88, 70.04 74.32 0.15 66
2 06/04/2018 14:05:52 75.24,-154.50 76.01 06/04/2018 14:04:50 75.24,-154.48 76.06 0.41 62
3 06/04/2018 14:54:59 -76.25, 16.13 105.17 06/04/2018 14:55:14 -76.24, 16.10 105.17 0.83 15
4 06/07/2018 06:22:09 75.75, -37.16 75.17 06/07/2018 06:21:33 75.76, -37.09 75.18 1.99 36
5 06/07/2018 07:11:19 -76.61, 133.20 105.85 06/07/2018 07:12:00 -76.61, 133.21 105.88 0.41 41
6 06/09/2018 22:38:36 75.81, 78.89 74.90 06/09/2018 22:38:27 75.80, 78.84 74.92 1.68 9
7 06/09/2018 23:27:40 -76.95,-109.69 106.47 06/09/2018 23:28:47 -76.96,-109.61 106.54 2.28 67
8 06/12/2018 14:05:56 -74.96, 24.77 104.28 06/12/2018 14:04:56 -74.95, 24.70 104.21 2.33 60
9 06/12/2018 14:54:53 76.35,-163.54 74.11 06/12/2018 14:55:10 76.35,-163.49 74.09 1.15 17
10 06/15/2018 06:22:12 -75.57, 142.30 105.08 06/15/2018 06:21:38 -75.57, 142.31 105.05 0.26 34




NCC Satellite Simultaneous Nadir Overpasses (SNOs) Prediction Service
